FW3835 Weather Reports


Display with metric or nautical units.
time (UTC)temp
F
wind
direction
speed
MPH
gust
MPH
rain 1hr
in
rain 24hr
in
rain mn
in
humidity
%
barometer
mb
20260902123018 53 330 0.0 0.0 0.00 0.00 0.00 82 1014.9
20260902121527 52 329 0.0 0.0 0.00 0.00 0.00 82 1014.9
20260902120028 52 330 0.0 0.0 0.00 0.00 0.00 82 1014.7
20260902114529 52 330 0.0 0.0 0.00 0.00 0.00 82 1014.5
20260902113013 52 330 0.0 0.0 0.00 0.00 0.00 82 1014.5
20260902111518 53 330 0.0 0.0 0.00 0.00 0.00 81 1014.5
20260902110038 53 360 0.0 0.0 0.00 0.00 0.00 82 1014.5
20260902104530 53 330 0.0 0.0 0.00 0.00 0.00 81 1014.5
20260902103031 53 330 0.0 0.0 0.00 0.00 0.00 81 1014.8
20260902101515 53 330 0.0 0.0 0.00 0.00 0.00 81 1014.7
20260902100025 53 330 0.0 0.0 0.00 0.00 0.00 81 1014.8
20260902094530 54 360 0.0 0.0 0.00 0.00 0.00 81 1014.4
20260902093037 54 330 0.0 0.0 0.00 0.00 0.00 81 1014.2
20260902091531 54 330 0.0 0.0 0.00 0.00 0.00 81 1014.0
20260902090023 54 360 0.0 0.0 0.00 0.00 0.00 80 1013.8
20260902084526 54 330 0.0 0.0 0.00 0.00 0.00 80 1013.8
20260902083028 54 329 0.0 0.0 0.00 0.00 0.00 79 1013.8
20260902081533 54 330 0.0 0.0 0.00 0.00 0.00 79 1013.8
20260902080024 55 330 0.0 0.0 0.00 0.00 0.00 78 1013.9
20260902080015 55 330 0.0 0.0 0.00 0.00 0.00 78 1013.8
20260902074508 55 330 0.0 0.0 0.00 0.00 0.00 78 1013.8
20260902073006 55 330 0.0 0.0 0.00 0.00 0.00 77 1014.0
20260902071509 56 329 0.0 0.0 0.00 0.00 0.00 77 1014.0
20260902070013 56 360 0.0 0.0 0.00 0.00 0.00 76 1014.3
20260902064508 57 330 0.0 0.0 0.00 0.00 0.00 75 1014.3
20260902063011 56 330 0.0 0.0 0.00 0.00 0.00 73 1014.2
20260902061520 56 330 0.0 0.0 0.00 0.00 0.00 72 1014.2
20260902060012 57 329 0.0 0.0 0.00 0.00 0.00 70 1014.0
20260902054517 57 360 0.0 1.0 0.00 0.00 0.00 69 1014.1
20260902053014 57 327 0.0 2.0 0.00 0.00 0.00 69 1014.1
20260902051512 58 328 0.0 0.0 0.00 0.00 0.00 68 1014.1
20260902050007 58 329 0.0 0.0 0.00 0.00 0.00 67 1014.0
20260902044510 59 330 0.0 0.0 0.00 0.00 0.00 67 1014.1
20260902043016 59 330 0.0 0.0 0.00 0.00 0.00 67 1014.3
20260902041515 59 330 0.0 0.0 0.00 0.00 0.00 67 1014.3
20260902040016 59 330 0.0 0.0 0.00 0.00 0.00 67 1014.1
20260902034507 59 330 0.0 0.0 0.00 0.00 0.00 68 1014.1
20260902033014 59 329 0.0 0.0 0.00 0.00 0.00 68 1014.1
20260902031518 59 330 0.0 0.0 0.00 0.00 0.00 67 1014.2
20260902030016 60 330 0.0 0.0 0.00 0.00 0.00 67 1014.0
20260902024516 60 330 0.0 0.0 0.00 0.00 0.00 67 1014.1
20260902023008 60 330 0.0 0.0 0.00 0.00 0.00 67 1014.1
20260902021513 61 330 0.0 0.0 0.00 0.00 0.00 66 1014.0
20260902020016 62 330 0.0 0.0 0.00 0.00 0.00 65 1013.9
20260902014516 62 330 0.0 0.0 0.00 0.00 0.00 63 1013.8
20260902013017 63 330 0.0 0.0 0.00 0.00 0.00 62 1013.6
20260902011517 64 330 0.0 0.0 0.00 0.00 0.00 60 1013.6
20260902010017 65 330 0.0 0.0 0.00 0.00 0.00 59 1013.5
20260902004517 66 330 0.0 0.0 0.00 0.00 0.00 57 1013.5
20260902003024 68 330 0.0 1.0 0.00 0.00 0.00 56 1013.5
20260902001518 69 330 0.0 3.0 0.00 0.00 0.00 57 1013.5
20260902000015 70 330 0.0 2.0 0.00 0.00 0.00 55 1013.4
20260901234521 71 330 0.0 3.0 0.00 0.00 0.00 52 1013.4
20260901233024 72 296 2.0 5.0 0.00 0.00 0.00 47 1013.4
20260901231522 73 49 0.0 4.0 0.00 0.00 0.00 49 1013.5
20260901230023 74 285 2.0 7.0 0.00 0.00 0.00 49 1013.5
20260901224517 74 327 1.0 3.0 0.00 0.00 0.00 51 1013.6
20260901223024 74 327 0.0 5.0 0.00 0.00 0.00 50 1013.6
20260901221525 75 252 1.0 6.0 0.00 0.00 0.00 46 1013.6
20260901220024 76 311 2.0 9.0 0.00 0.00 0.00 43 1013.5
20260901214524 76 47 2.0 7.0 0.00 0.00 0.00 44 1013.5
20260901213018 76 338 2.0 6.0 0.00 0.00 0.00 46 1013.4
20260901211527 77 34 1.0 5.0 0.00 0.00 0.00 43 1013.4
20260901210029 77 340 2.0 7.0 0.00 0.00 0.00 44 1013.5
20260901204526 78 306 2.0 12.0 0.00 0.00 0.00 41 1013.4
20260901203028 77 60 3.0 12.0 0.00 0.00 0.00 41 1013.4
20260901201520 78 147 2.0 8.0 0.00 0.00 0.00 42 1013.5
20260901200026 78 360 4.0 12.0 0.00 0.00 0.00 45 1013.5
20260901194531 77 166 2.0 9.0 0.00 0.00 0.00 42 1013.6
20260901193012 76 325 1.0 9.0 0.00 0.00 0.00 45 1013.6
20260901191546 77 340 2.0 11.0 0.00 0.00 0.00 42 1013.6
20260901190024 77 180 1.0 9.0 0.00 0.00 0.00 44 1013.6
20260901184518 78 63 1.0 8.0 0.00 0.00 0.00 45 1013.7
20260901183024 77 205 3.0 10.0 0.00 0.00 0.00 45 1013.8
20260901181516 77 326 2.0 8.0 0.00 0.00 0.00 44 1013.9
20260901180023 77 202 3.0 9.0 0.00 0.00 0.00 44 1014.0
20260901174523 77 184 2.0 8.0 0.00 0.00 0.00 47 1014.0
20260901173025 76 38 2.0 6.0 0.00 0.00 0.00 47 1014.2
20260901171525 76 278 1.0 9.0 0.00 0.00 0.00 45 1014.1
20260901170017 76 275 2.0 10.0 0.00 0.00 0.00 46 1014.2
20260901164538 76 153 2.0 14.0 0.00 0.00 0.00 47 1014.4
20260901163025 74 248 2.0 9.0 0.00 0.00 0.00 47 1014.3
20260901161546 74 360 3.0 13.0 0.00 0.00 0.00 47 1014.2
20260901160027 73 360 1.0 8.0 0.00 0.00 0.00 52 1014.2
20260901154520 73 184 2.0 8.0 0.00 0.00 0.00 51 1014.3
20260901153027 72 157 1.0 6.0 0.00 0.00 0.00 52 1014.4
20260901151525 71 97 2.0 8.0 0.00 0.00 0.00 53 1014.4
20260901150036 70 146 2.0 7.0 0.00 0.00 0.00 56 1014.2
20260901144536 68 146 2.0 6.0 0.00 0.00 0.00 57 1014.2
20260901143024 67 180 1.0 6.0 0.00 0.00 0.00 59 1014.2
20260901141529 67 173 2.0 6.0 0.00 0.00 0.00 59 1014.1
20260901140028 65 352 0.0 4.0 0.00 0.00 0.00 61 1014.0
20260901134527 64 175 0.0 3.0 0.00 0.00 0.00 62 1014.1
20260901133029 61 176 0.0 2.0 0.00 0.00 0.00 65 1014.0
20260901131527 58 176 0.0 3.0 0.00 0.00 0.00 70 1013.8
20260901130031 56 171 0.0 2.0 0.00 0.00 0.00 72 1013.8
20260901124530 55 170 1.0 2.0 0.00 0.00 0.00 73 1013.8